FW7886 Weather Reports


Display with metric or nautical units.
time (UTC)temp
F
wind
direction
speed
MPH
gust
MPH
rain 1hr
in
rain 24hr
in
rain mn
in
humidity
%
barometer
mb
20260507184037 80 42 1.0 5.0 0.00 0.06 0.06 78 1013.7
20260507183531 79 42 1.0 5.0 0.00 0.06 0.06 79 1013.8
20260507183025 79 42 1.0 4.0 0.00 0.06 0.06 78 1013.9
20260507182525 78 42 1.0 6.0 0.00 0.06 0.06 79 1013.8
20260507182025 78 42 1.0 6.0 0.00 0.06 0.06 79 1013.9
20260507181528 78 42 1.0 6.0 0.00 0.06 0.06 79 1013.9
20260507181021 78 42 1.0 6.0 0.00 0.06 0.06 78 1013.9
20260507180521 78 42 1.0 4.0 0.00 0.06 0.06 79 1013.7
20260507180021 78 42 1.0 4.0 0.00 0.06 0.06 80 1013.8
20260507175520 78 42 1.0 4.0 0.00 0.06 0.06 79 1014.0
20260507175019 78 42 1.0 3.0 0.00 0.06 0.06 79 1014.0
20260507174515 77 42 1.0 4.0 0.00 0.06 0.06 80 1013.9
20260507174014 77 42 1.0 4.0 0.00 0.06 0.06 79 1013.8
20260507173515 77 42 1.0 5.0 0.00 0.06 0.06 80 1014.1
20260507173014 77 42 1.0 5.0 0.00 0.06 0.06 81 1014.2
20260507172514 77 42 1.0 5.0 0.00 0.06 0.06 80 1014.2
20260507172015 77 42 1.0 5.0 0.00 0.06 0.06 80 1014.3
20260507171513 77 42 1.0 6.0 0.00 0.06 0.06 80 1014.3
20260507171010 76 42 1.0 6.0 0.00 0.06 0.06 82 1014.2
20260507170738 75 42 1.0 4.0 0.00 0.06 0.06 84 1014.1
20260507170013 74 42 1.0 4.0 0.00 0.06 0.06 82 1014.1
20260507165730 75 42 1.0 5.0 0.00 0.06 0.06 83 1014.2
20260507165008 74 42 2.0 7.0 0.00 0.06 0.06 84 1014.1
20260507164508 74 42 1.0 7.0 0.00 0.06 0.06 83 1014.0
20260507164006 73 42 1.0 4.0 0.00 0.06 0.06 84 1014.1
20260507163507 73 42 1.0 6.0 0.00 0.06 0.06 84 1014.3
20260507163007 72 42 1.0 6.0 0.00 0.06 0.06 87 1014.4
20260507162727 72 42 1.0 5.0 0.00 0.06 0.06 84 1014.4
20260507162233 72 42 2.0 4.0 0.00 0.06 0.06 86 1014.5
20260507161507 71 42 1.0 4.0 0.00 0.06 0.06 86 1014.3
20260507161006 71 42 2.0 5.0 0.00 0.06 0.06 88 1014.5
20260507160507 71 42 2.0 5.0 0.00 0.06 0.06 86 1014.5
20260507160005 71 42 1.0 6.0 0.00 0.06 0.06 87 1014.6
20260507155505 71 42 1.0 7.0 0.00 0.06 0.06 87 1014.7
20260507155003 71 42 1.0 7.0 0.00 0.06 0.06 87 1014.7
20260507154505 71 42 1.0 4.0 0.00 0.06 0.06 88 1015.0
20260507154004 71 42 1.0 3.0 0.00 0.06 0.06 88 1014.8
20260507153504 70 42 1.0 3.0 0.00 0.06 0.06 89 1014.7
20260507153005 70 42 1.0 3.0 0.00 0.06 0.06 89 1014.8
20260507152721 70 42 1.0 4.0 0.00 0.06 0.06 89 1014.7
20260507152217 70 42 1.0 4.0 0.00 0.06 0.06 90 1014.7
20260507151445 69 42 1.0 4.0 0.00 0.06 0.06 90 1014.7
20260507150940 69 42 1.0 3.0 0.00 0.06 0.06 91 1014.6
20260507150434 68 42 1.0 4.0 0.00 0.06 0.06 92 1014.5
20260507145927 68 42 1.0 4.0 0.00 0.06 0.06 93 1014.4
20260507145422 67 42 1.0 3.0 0.00 0.06 0.06 93 1014.5
20260507144916 67 42 0.0 3.0 0.00 0.06 0.06 93 1014.5
20260507144409 67 42 1.0 4.0 0.00 0.06 0.06 95 1014.5
20260507143904 66 42 1.0 4.0 0.00 0.06 0.06 95 1014.4
20260507143358 66 42 1.0 4.0 0.00 0.06 0.06 96 1014.5
20260507142852 65 42 1.0 4.0 0.00 0.06 0.06 96 1014.3
20260507142345 65 42 0.0 3.0 0.00 0.06 0.06 97 1014.3
20260507141840 65 42 0.0 2.0 0.00 0.06 0.06 98 1014.4
20260507141334 65 42 0.0 3.0 0.00 0.06 0.06 98 1014.3
20260507140828 64 42 1.0 3.0 0.00 0.06 0.06 98 1014.4
20260507140321 64 42 0.0 2.0 0.00 0.06 0.06 98 1014.4
20260507140044 64 42 0.0 4.0 0.00 0.06 0.06 98 1014.5
20260507135753 64 42 1.0 7.0 0.00 0.06 0.06 98 1014.8
20260507134802 64 42 2.0 7.0 0.00 0.06 0.06 98 1014.8
20260507134256 64 42 1.0 5.0 0.00 0.06 0.06 98 1014.7
20260507133750 64 42 1.0 5.0 0.00 0.06 0.06 98 1014.6
20260507133244 64 42 1.0 5.0 0.00 0.06 0.06 98 1014.5
20260507132737 64 42 1.0 4.0 0.00 0.06 0.06 99 1014.3
20260507132232 64 42 1.0 4.0 0.00 0.06 0.06 99 1014.2
20260507131944 64 42 0.0 3.0 0.00 0.06 0.06 99 1014.0
20260507131220 64 42 1.0 5.0 0.00 0.06 0.06 99 1013.9
20260507130713 64 42 1.0 5.0 0.00 0.06 0.06 99 1014.0
20260507130657 64 42 1.0 4.0 0.00 0.06 0.06 99 1014.0
20260507125702 64 42 1.0 3.0 0.00 0.06 0.06 99 1014.1
20260507125156 64 42 1.0 4.0 0.00 0.06 0.06 99 1014.0
20260507124649 64 42 1.0 4.0 0.00 0.06 0.06 99 1013.9
20260507124144 64 42 0.0 4.0 0.00 0.06 0.06 99 1014.0
20260507123638 64 42 0.0 3.0 0.00 0.06 0.06 99 1013.9
20260507123132 64 42 0.0 3.0 0.00 0.06 0.06 99 1013.9
20260507122626 64 42 1.0 4.0 0.00 0.06 0.06 99 1013.7
20260507122120 64 42 1.0 5.0 0.00 0.06 0.06 99 1013.7
20260507121614 64 42 1.0 5.0 0.00 0.06 0.06 99 1013.7
20260507121108 64 42 1.0 7.0 0.00 0.06 0.06 99 1013.6
20260507120602 65 42 1.0 7.0 0.00 0.06 0.06 99 1013.5
20260507120056 65 42 2.0 6.0 0.00 0.06 0.06 99 1013.3
20260507115550 65 42 1.0 6.0 0.00 0.06 0.06 99 1013.2
20260507115044 65 42 1.0 3.0 0.01 0.06 0.06 99 1013.0
20260507114538 65 42 0.0 4.0 0.01 0.06 0.06 99 1012.7
20260507114032 65 42 1.0 4.0 0.02 0.06 0.06 99 1012.7
20260507113526 65 42 1.0 5.0 0.02 0.06 0.06 99 1012.7
20260507113020 66 42 1.0 5.0 0.02 0.06 0.06 99 1012.7
20260507112514 66 42 0.0 3.0 0.02 0.06 0.06 99 1012.4
20260507112008 66 42 0.0 2.0 0.03 0.06 0.06 99 1012.4
20260507111503 66 42 1.0 3.0 0.03 0.06 0.06 99 1012.2
20260507110956 66 42 1.0 5.0 0.03 0.06 0.06 99 1012.3
20260507110709 66 42 2.0 5.0 0.03 0.06 0.06 99 1012.5
20260507110202 66 42 2.0 7.0 0.03 0.06 0.06 99 1012.3
20260507105700 66 42 2.0 7.0 0.03 0.06 0.06 99 1012.1
20260507104932 67 42 1.0 5.0 0.02 0.05 0.05 99 1012.3
20260507104426 67 42 1.0 5.0 0.02 0.05 0.05 99 1012.3
20260507103920 67 42 1.0 5.0 0.01 0.04 0.04 99 1012.0
20260507103414 67 42 2.0 8.0 0.01 0.04 0.04 99 1012.0
20260507102907 67 42 2.0 8.0 0.01 0.04 0.04 98 1011.7
20260507102401 68 42 1.0 7.0 0.01 0.04 0.04 98 1011.5
20260507101856 68 42 1.0 7.0 0.00 0.03 0.03 99 1011.5
20260507101350 69 42 1.0 7.0 0.00 0.03 0.03 99 1011.7
20260507100844 69 42 1.0 3.0 0.00 0.03 0.03 99 1011.1
20260507100338 69 42 0.0 2.0 0.00 0.03 0.03 99 1011.1
20260507095831 69 42 1.0 4.0 0.00 0.03 0.03 99 1011.1
20260507095326 69 42 1.0 4.0 0.00 0.03 0.03 99 1011.2
20260507094820 69 42 1.0 4.0 0.00 0.03 0.03 99 1011.2
20260507094314 69 42 1.0 3.0 0.01 0.03 0.03 99 1011.0
20260507093814 70 42 1.0 4.0 0.01 0.03 0.03 98 1011.0
20260507093314 70 42 1.0 4.0 0.01 0.03 0.03 98 1010.9
20260507092813 70 42 1.0 4.0 0.03 0.03 0.03 98 1010.8
20260507092312 71 42 1.0 4.0 0.03 0.03 0.03 99 1010.7
20260507091813 71 42 1.0 5.0 0.03 0.03 0.03 98 1010.9
20260507091316 71 42 1.0 5.0 0.03 0.03 0.03 98 1010.9
20260507091030 71 42 1.0 5.0 0.03 0.03 0.03 98 1010.8
20260507090312 72 42 1.0 5.0 0.03 0.03 0.03 98 1011.0
20260507085810 72 42 1.0 4.0 0.03 0.03 0.03 98 1010.8
20260507085308 72 42 0.0 2.0 0.03 0.03 0.03 98 1010.7
20260507084810 73 42 1.0 5.0 0.03 0.03 0.03 98 1010.7
20260507084308 73 42 1.0 5.0 0.02 0.02 0.02 98 1010.7
20260507083808 73 42 2.0 8.0 0.02 0.02 0.02 97 1010.7
20260507083308 74 42 2.0 10.0 0.02 0.02 0.02 97 1010.8
20260507082806 76 42 1.0 10.0 0.00 0.00 0.00 98 1010.7
20260507082528 77 42 2.0 5.0 0.00 0.00 0.00 99 1010.6
20260507081802 77 42 2.0 5.0 0.00 0.00 0.00 99 1010.4
20260507081259 77 42 2.0 6.0 0.00 0.00 0.00 99 1010.4
20260507080803 77 42 2.0 6.0 0.00 0.00 0.00 99 1010.3
20260507080257 77 42 2.0 6.0 0.00 0.00 0.00 99 1010.4
20260507075750 77 42 2.0 6.0 0.00 0.00 0.00 99 1010.4
20260507075245 77 42 2.0 6.0 0.00 0.00 0.00 99 1010.5
20260507074743 77 42 1.0 5.0 0.00 0.00 0.00 99 1010.6
20260507074242 77 42 1.0 4.0 0.00 0.00 0.00 99 1010.5
20260507073741 77 42 1.0 4.0 0.00 0.00 0.00 99 1010.6
20260507073241 77 42 1.0 4.0 0.00 0.00 0.00 99 1010.5
20260507072741 77 42 1.0 3.0 0.00 0.00 0.00 99 1010.5
20260507072241 77 42 2.0 3.0 0.00 0.00 0.00 99 1010.6
20260507071740 77 42 2.0 4.0 0.00 0.00 0.00 99 1010.5
20260507071458 77 42 2.0 5.0 0.00 0.00 0.00 98 1010.8
20260507070741 77 42 2.0 5.0 0.00 0.00 0.00 98 1010.9
20260507070241 77 42 2.0 5.0 0.00 0.00 0.00 98 1010.8
20260507065742 77 42 2.0 5.0 0.00 0.00 0.00 98 1010.9
20260507065241 77 42 1.0 5.0 0.00 0.00 0.00 97 1010.9
20260507064740 78 42 1.0 4.0 0.00 0.00 0.00 97 1011.0
20260507064723 78 42 1.0 3.0 0.00 0.00 0.00 97 1010.9
20260507063740 78 42 1.0 4.0 0.00 0.00 0.00 97 1010.9
20260507063241 78 42 1.0 4.0 0.00 0.00 0.00 97 1011.0
20260507062741 78 42 1.0 3.0 0.00 0.00 0.00 97 1011.0
20260507062516 78 42 1.0 4.0 0.00 0.00 0.00 96 1010.9
20260507062511 78 42 3.0 6.0 0.00 0.00 0.00 96 1011.1
20260507062435 78 42 1.0 3.0 0.00 0.00 0.00 96 1010.9
20260507062327 78 42 1.0 3.0 0.00 0.00 0.00 96 1011.0
20260507062011 78 42 2.0 5.0 0.00 0.00 0.00 96 1011.0
20260507060240 78 42 3.0 6.0 0.00 0.00 0.00 96 1011.1
20260507055741 78 42 3.0 7.0 0.00 0.00 0.00 96 1011.1
20260507055242 78 42 3.0 7.0 0.00 0.00 0.00 96 1011.1
20260507055002 78 42 3.0 8.0 0.00 0.00 0.00 95 1011.1
20260507054240 78 42 3.0 8.0 0.00 0.00 0.00 95 1010.9
20260507053740 78 42 3.0 6.0 0.00 0.00 0.00 95 1011.0
20260507053243 78 42 3.0 7.0 0.00 0.00 0.00 95 1010.9
20260507052739 78 42 3.0 7.0 0.00 0.00 0.00 94 1011.0
20260507052237 79 42 3.0 8.0 0.00 0.00 0.00 94 1010.9
20260507051741 79 42 3.0 8.0 0.00 0.00 0.00 94 1010.8
20260507051239 79 42 3.0 11.0 0.00 0.00 0.00 94 1010.8
20260507050734 79 42 3.0 11.0 0.00 0.00 0.00 94 1010.7
20260507050227 79 42 3.0 7.0 0.00 0.00 0.00 94 1010.9
20260507045723 79 42 2.0 7.0 0.00 0.00 0.00 94 1010.7
20260507045213 79 42 2.0 5.0 0.00 0.00 0.00 94 1010.9
20260507044707 79 42 2.0 5.0 0.00 0.00 0.00 94 1010.9
20260507044208 79 42 3.0 7.0 0.00 0.00 0.00 94 1010.9
20260507043658 79 42 3.0 7.0 0.00 0.00 0.00 94 1011.0
20260507043156 79 42 2.0 7.0 0.00 0.00 0.00 94 1010.8
20260507042656 79 42 2.0 5.0 0.00 0.00 0.00 94 1010.8
20260507042155 79 42 3.0 6.0 0.00 0.00 0.00 94 1010.9
20260507041655 79 42 3.0 6.0 0.00 0.00 0.00 94 1011.0
20260507041415 79 42 3.0 8.0 0.00 0.00 0.00 94 1010.9
20260507040654 79 42 3.0 8.0 0.00 0.00 0.00 94 1010.9
20260507040154 79 42 3.0 7.0 0.00 0.00 0.00 94 1010.9
20260507035653 79 42 3.0 7.0 0.00 0.00 0.00 94 1010.9
20260507035153 79 42 4.0 7.0 0.00 0.00 0.00 94 1010.9
20260507034653 79 42 4.0 10.0 0.00 0.00 0.00 94 1011.0
20260507034153 79 42 4.0 10.0 0.00 0.00 0.00 93 1010.9
20260507033653 79 48 4.0 10.0 0.00 0.00 0.00 93 1010.9
20260507033151 79 45 4.0 9.0 0.00 0.00 0.00 94 1010.8
20260507032651 79 47 3.0 10.0 0.00 0.00 0.00 94 1010.9
20260507032155 79 47 3.0 10.0 0.00 0.00 0.00 94 1010.8
20260507031649 79 44 3.0 6.0 0.00 0.00 0.00 94 1010.7
20260507031150 79 44 3.0 7.0 0.00 0.00 0.00 94 1010.6
20260507030911 79 44 3.0 7.0 0.00 0.00 0.00 94 1010.6
20260507030149 79 44 3.0 6.0 0.00 0.00 0.00 94 1010.6
20260507025916 79 44 3.0 6.0 0.00 0.00 0.00 94 1010.6
20260507025148 79 48 3.0 6.0 0.00 0.00 0.00 93 1010.5
20260507025135 79 48 3.0 7.0 0.00 0.00 0.00 93 1010.4
20260507024642 79 48 4.0 8.0 0.00 0.00 0.00 93 1010.4
20260507023650 79 48 3.0 8.0 0.00 0.00 0.00 93 1010.4
20260507023149 79 49 3.0 8.0 0.00 0.00 0.00 93 1010.3
20260507022649 79 49 4.0 9.0 0.00 0.00 0.00 93 1010.3
20260507022149 79 45 3.0 9.0 0.00 0.00 0.00 93 1010.2
20260507021649 80 44 3.0 7.0 0.00 0.00 0.00 93 1010.1
20260507021149 80 44 3.0 7.0 0.00 0.00 0.00 92 1010.2
20260507020859 80 44 3.0 9.0 0.00 0.00 0.00 92 1009.9
20260507020742 80 44 3.0 9.0 0.00 0.00 0.00 92 1010.0
20260507015649 80 44 3.0 8.0 0.00 0.00 0.00 92 1009.7
20260507015410 80 45 3.0 8.0 0.00 0.00 0.00 92 1009.7
20260507014649 80 45 3.0 8.0 0.00 0.00 0.00 92 1009.7
20260507014148 80 45 4.0 8.0 0.00 0.00 0.00 92 1009.6
20260507013648 80 44 4.0 9.0 0.00 0.00 0.00 92 1009.4
20260507013148 80 47 3.0 9.0 0.00 0.00 0.00 92 1009.5
20260507012648 80 286 3.0 9.0 0.00 0.00 0.00 91 1009.4
20260507012147 80 133 3.0 8.0 0.00 0.00 0.00 91 1009.6
20260507011647 80 40 3.0 14.0 0.00 0.00 0.00 91 1009.5
20260507011146 81 210 4.0 14.0 0.00 0.00 0.00 91 1009.3
20260507010911 81 42 5.0 9.0 0.00 0.00 0.00 90 1009.1
20260507010150 81 42 5.0 9.0 0.00 0.00 0.00 90 1009.2
20260507005645 81 42 5.0 10.0 0.00 0.00 0.00 90 1009.1
20260507005144 81 43 4.0 10.0 0.00 0.00 0.00 90 1009.3
20260507004900 81 43 4.0 10.0 0.00 0.00 0.00 89 1009.5
20260507004139 81 42 4.0 10.0 0.00 0.00 0.00 89 1009.5
20260507003912 81 47 4.0 9.0 0.00 0.00 0.00 89 1009.6
20260507003137 82 48 3.0 9.0 0.00 0.00 0.00 89 1009.5
20260507002637 82 49 3.0 6.0 0.00 0.00 0.00 89 1009.4
20260507002137 82 49 3.0 6.0 0.00 0.00 0.00 89 1009.5
20260507001637 82 49 4.0 10.0 0.00 0.00 0.00 88 1009.5
20260507001138 82 14 4.0 10.0 0.00 0.00 0.00 88 1009.4
20260507000634 82 43 4.0 9.0 0.00 0.00 0.00 88 1009.3
20260507000135 82 43 3.0 9.0 0.00 0.00 0.00 88 1009.2
20260506235636 82 45 4.0 7.0 0.00 0.00 0.00 87 1009.1
20260506235134 83 44 4.0 10.0 0.00 0.00 0.00 87 1009.3
20260506234634 83 45 4.0 10.0 0.00 0.00 0.00 87 1009.2
20260506234134 83 40 4.0 9.0 0.00 0.00 0.00 86 1009.3
20260506233632 83 49 5.0 9.0 0.00 0.00 0.00 86 1009.1
20260506233134 83 42 4.0 8.0 0.00 0.00 0.00 86 1009.1
20260506232631 83 307 4.0 9.0 0.00 0.00 0.00 86 1009.0
20260506232131 83 44 4.0 11.0 0.00 0.00 0.00 85 1009.0
20260506231630 83 42 5.0 11.0 0.00 0.00 0.00 85 1009.1
20260506231346 83 42 5.0 13.0 0.00 0.00 0.00 85 1009.0
20260506230627 83 30 5.0 13.0 0.00 0.00 0.00 85 1008.9
20260506230128 84 43 4.0 9.0 0.00 0.00 0.00 85 1008.8
20260506225624 84 44 4.0 12.0 0.00 0.00 0.00 85 1008.8
20260506225125 84 280 4.0 12.0 0.00 0.00 0.00 85 1008.8
20260506224845 84 40 5.0 11.0 0.00 0.00 0.00 84 1009.0
20260506224124 84 45 5.0 11.0 0.00 0.00 0.00 83 1008.9
20260506223624 84 47 4.0 11.0 0.00 0.00 0.00 83 1009.1
20260506223344 84 54 5.0 11.0 0.00 0.00 0.00 83 1009.0
20260506223113 84 42 5.0 10.0 0.00 0.00 0.00 83 1009.1
20260506222122 84 42 5.0 10.0 0.00 0.00 0.00 83 1009.2
20260506221842 84 42 6.0 10.0 0.00 0.00 0.00 82 1009.2
20260506221122 85 42 5.0 12.0 0.00 0.00 0.00 82 1009.3
20260506220622 85 39 4.0 12.0 0.00 0.00 0.00 82 1009.1
20260506220125 85 251 5.0 11.0 0.00 0.00 0.00 82 1009.1
20260506215625 85 331 5.0 11.0 0.00 0.00 0.00 82 1009.0
20260506215344 85 44 5.0 11.0 0.00 0.00 0.00 82 1009.1
20260506214833 85 40 5.0 11.0 0.00 0.00 0.00 82 1009.3
20260506214108 85 42 5.0 11.0 0.00 0.00 0.00 82 1009.2
20260506213832 85 42 5.0 10.0 0.00 0.00 0.00 82 1009.2
20260506213322 86 42 5.0 10.0 0.00 0.00 0.00 81 1009.2
20260506212549 86 42 5.0 10.0 0.00 0.00 0.00 81 1009.3
20260506212044 86 43 4.0 10.0 0.00 0.00 0.00 82 1009.3
20260506211538 86 43 4.0 10.0 0.00 0.00 0.00 82 1009.4
20260506211257 86 43 4.0 10.0 0.00 0.00 0.00 81 1009.5
20260506210744 86 43 5.0 13.0 0.00 0.00 0.00 82 1009.4
20260506210019 86 43 4.0 13.0 0.00 0.00 0.00 81 1009.4
20260506205514 86 44 4.0 11.0 0.00 0.00 0.00 82 1009.5
20260506205234 86 45 4.0 11.0 0.00 0.00 0.00 82 1009.5
20260506204459 85 42 4.0 9.0 0.00 0.00 0.00 83 1009.7
20260506204451 85 42 5.0 11.0 0.00 0.00 0.00 82 1009.6
20260506203450 85 280 5.0 12.0 0.00 0.00 0.00 82 1009.6
20260506203211 85 218 6.0 12.0 0.00 0.00 0.00 82 1009.5
20260506202701 85 259 5.0 10.0 0.00 0.00 0.00 84 1009.6
20260506201931 85 43 5.0 11.0 0.00 0.00 0.00 83 1009.8
20260506201425 85 292 5.0 11.0 0.00 0.00 0.00 83 1009.8
20260506201403 85 42 5.0 10.0 0.00 0.00 0.00 82 1009.9
20260506200413 86 48 6.0 11.0 0.00 0.00 0.00 81 1010.1
20260506195907 85 291 5.0 11.0 0.00 0.00 0.00 82 1010.0
20260506195402 85 262 4.0 10.0 0.00 0.00 0.00 82 1010.3
20260506194859 85 248 5.0 10.0 0.00 0.00 0.00 83 1010.5
20260506194350 85 270 6.0 10.0 0.00 0.00 0.00 83 1010.5
20260506193844 85 45 6.0 11.0 0.00 0.00 0.00 83 1010.6
20260506193338 85 275 5.0 11.0 0.00 0.00 0.00 83 1010.8
20260506192831 85 261 5.0 9.0 0.00 0.00 0.00 83 1011.0
20260506192325 84 44 4.0 9.0 0.00 0.00 0.00 83 1011.1
20260506191820 85 44 4.0 9.0 0.00 0.00 0.00 83 1011.2
20260506191313 85 48 5.0 11.0 0.00 0.00 0.00 84 1011.3
20260506190808 85 248 5.0 11.0 0.00 0.00 0.00 83 1011.4
20260506190302 84 43 4.0 10.0 0.00 0.00 0.00 84 1011.4
20260506185755 84 43 5.0 9.0 0.00 0.00 0.00 84 1011.5
20260506185250 84 43 5.0 10.0 0.00 0.00 0.00 83 1011.6
20260506184741 84 43 5.0 10.0 0.00 0.00 0.00 84 1011.6
20260506184234 84 43 5.0 10.0 0.00 0.00 0.00 84 1011.7